Temp
62 62 63 63 63 63 63 64 63 63 63 63 63 63 63 63 64 62 62 72 70 70 70 66 64 63 62 59 59 54 47 42 47 49 53 55 54 57 56 54 55 60 56 54 53
62 62 62 62 62 63 63 63 63 63 63 63 63 63 63 63 60 61 71 72 72 70 68 65 62 62 57 56 57 53 43 49 53 53 53 55 55 55 53 53 54 57 54 52 52
61 61 62 62 62 62 62 62 62 62 63 63 63 63 62 60 60 65 72 72 70 70 68 67 64 63 54 54 54 51 49 52 57 58 58 56 53 57 53 54 56 59 60 52 50
61 61 61 61 61 61 62 62 62 62 62 62 62 62 62 58 55 66 70 71 70 68 67 65 61 56 52 53 56 49 55 56 59 59 56 54 56 54 55 65 62 61 56 52 50
60 60 60 60 61 61 62 62 62 62 62 62 62 62 60 56 62 66 67 68 65 65 65 62 59 56 52 53 53 51 53 57 57 57 56 56 55 54 56 62 60 60 57 54 52
60 60 60 60 61 61 62 62 62 62 62 62 62 62 56 53 67 66 65 64 63 61 61 62 60 60 55 54 53 52 54 56 54 56 56 56 56 53 63 58 58 57 56 54 53
60 60 60 60 60 61 61 62 62 61 61 62 62 59 55 62 65 64 65 63 65 64 60 61 60 58 54 52 55 53 51 52 52 54 54 53 52 49 64 56 58 56 56 54 55
60 60 59 60 60 61 61 61 61 61 61 61 62 54 56 64 61 63 63 61 64 63 63 61 62 58 54 56 54 47 44 42 51 50 52 55 49 62 59 55 57 57 54 54 56
60 59 59 60 60 60 60 61 60 61 62 62 54 52 55 64 61 63 63 62 62 61 60 67 61 54 51 45 43 39 38 40 47 53 51 50 47 58 56 53 54 55 56 57 55
60 59 60 60 60 60 60 61 60 60 61 61 63 52 59 58 60 62 60 63 58 57 57 55 49 47 42 42 38 38 36 39 42 50 45 44 46 54 59 53 53 55 57 58 60
60 60 60 60 60 61 57 54 55 53 53 55 54 55 58 58 61 58 61 60 57 53 47 48 43 42 51 48 47 43 40 40 47 53 44 45 48 52 59 58 51 53 57 60 62
60 60 60 60 60 60 53 50 47 48 45 54 54 55 58 58 54 56 62 55 52 47 46 41 40 52 49 47 45 44 43 42 50 53 45 47 48 54 54 58 61 62 60 62 62
60 59 59 59 59 56 50 50 53 50 42 50 53 53 56 59 54 55 59 52 47 44 44 47 47 51 48 44 44 42 39 45 44 45 43 41 44 47 50 55 59 61 63 63 62
59 59 59 59 55 51 50 53 53 51 37 45 50 52 54 55 50 53 54 53 46 46 44 43 50 49 42 42 47 44 46 47 44 36 37 40 36 43 51 54 51 57 61 58 59
58 58 59 59 52 52 56 54 51 50 31 48 49 57 52 50 48 48 51 51 44 44 43 45 42 41 42 47 47 45 46 44 39 35 32 33 31 38 45 45 51 57 59 61 61
58 58 58 57 54 56 55 54 52 41 32 45 48 45 46 46 46 47 47 51 48 43 43 45 44 47 46 45 46 45 40 38 33 33 29 37 37 40 40 47 48 53 56 58 61
57 57 56 59 54 56 56 53 42 34 47 44 44 44 42 42 43 43 41 40 40 35 35 39 41 43 48 42 41 44 37 29 26 23 29 38 33 47 50 51 53 57 57 56 53
56 56 55 58 56 55 52 45 35 43 42 47 45 42 44 47 44 40 37 37 39 37 35 35 38 42 45 46 41 39 40 29 20 24 37 34 35 49 52 54 53 49 50 52 52
55 54 54 55 55 54 48 38 39 45 50 47 49 41 38 43 45 40 37 37 42 43 39 34 36 40 42 42 47 36 35 42 31 19 20 38 44 54 46 48 47 51 47 48 49
48 50 52 55 56 52 44 40 44 50 51 50 42 46 39 43 43 43 41 41 41 43 48 43 35 43 38 40 40 41 41 32 30 24 19 35 36 42 48 55 59 49 49 47 47
47 44 50 54 55 46 38 40 45 52 53 48 45 44 44 44 45 44 43 45 45 44 47 45 39 37 40 37 40 35 35 36 37 33 31 28 36 55 51 47 46 46 48 48 51
44 37 51 55 43 43 40 44 47 47 50 48 46 47 44 45 43 43 42 45 49 47 41 44 39 32 35 40 42 40 39 40 33 30 35 37 38 57 56 56 55 57 56 49 50
41 40 51 50 37 39 43 43 46 45 46 45 44 45 47 43 37 42 44 51 52 47 43 42 33 31 33 34 34 34 40 41 42 39 32 28 34 54 55 55 57 56 50 51 49
38 33 42 45 46 41 40 41 41 46 45 46 45 46 42 40 44 39 40 45 44 45 45 44 40 35 29 37 39 34 36 39 39 33 33 35 38 45 48 50 55 58 57 55 49
37 33 38 34 37 40 41 40 38 38 44 46 41 41 40 35 37 36 39 38 39 41 40 37 32 34 34 35 34 32 32 35 36 40 33 36 37 43 49 48 43 40 41 39 39
33 32 35 33 36 35 38 37 36 39 41 39 38 38 35 33 34 30 28 31 30 33 34 36 26 31 28 34 35 32 34 34 33 34 34 36 37 34 31 31 32 34 35 35 36
34 36 35 32 29 28 30 35 33 36 39 38 33 30 30 32 33 34 36 34 34 31 29 30 28 24 22 31 29 23 31 35 38 39 32 28 24 28 27 28 30 32 34 34 37
MSLP
1020.38 1020.15 1019.97 1019.82 1019.66 1019.40 1019.07 1018.80 1018.56 1018.27 1018.06 1017.74 1017.39 1017.13 1016.91 1016.61 1016.13 1016.13 1015.62 1013.84 1013.82 1014.13 1014.47 1015.10 1015.32 1015.50 1015.78 1016.25 1016.63 1017.25 1018.05 1017.98 1016.80 1015.71 1014.21 1013.52 1013.57 1013.20 1013.13 1013.38 1013.50 1013.38 1013.35 1013.69 1014.26
1020.56 1020.32 1020.02 1019.76 1019.58 1019.41 1019.18 1018.89 1018.69 1018.39 1018.03 1017.76 1017.49 1017.16 1016.84 1016.63 1016.40 1015.47 1013.41 1013.34 1013.63 1014.01 1014.57 1015.07 1015.48 1015.70 1016.16 1016.34 1016.70 1017.22 1017.93 1016.90 1015.51 1014.55 1013.89 1013.46 1013.48 1013.30 1013.40 1013.38 1013.41 1013.32 1013.38 1014.05 1014.71
1020.58 1020.36 1020.10 1019.82 1019.59 1019.35 1019.10 1018.86 1018.63 1018.38 1018.04 1017.70 1017.45 1017.18 1016.80 1016.62 1016.19 1013.92 1012.98 1013.20 1013.53 1013.89 1014.23 1014.78 1015.25 1015.70 1016.32 1016.48 1016.58 1016.92 1016.82 1015.82 1014.69 1014.18 1013.81 1013.57 1013.42 1013.16 1013.31 1013.09 1012.84 1012.98 1012.89 1013.93 1014.62
1020.61 1020.37 1020.15 1019.91 1019.59 1019.33 1019.05 1018.78 1018.50 1018.25 1017.97 1017.67 1017.39 1017.00 1016.64 1016.52 1015.56 1013.28 1013.19 1013.30 1013.62 1013.99 1014.47 1014.93 1015.50 1015.97 1016.28 1016.39 1016.00 1016.58 1015.68 1015.37 1014.32 1013.95 1013.89 1013.76 1013.25 1013.18 1013.09 1011.24 1011.43 1011.75 1012.32 1013.32 1014.08
1020.57 1020.32 1020.10 1019.88 1019.55 1019.22 1018.92 1018.62 1018.36 1018.13 1017.91 1017.60 1017.34 1017.00 1016.54 1016.29 1014.63 1013.30 1013.53 1013.85 1014.15 1014.34 1014.53 1014.93 1015.42 1015.69 1015.90 1015.85 1015.95 1016.14 1015.44 1015.05 1014.31 1014.35 1014.14 1013.91 1013.30 1013.29 1012.27 1010.75 1011.24 1011.55 1012.21 1012.70 1013.11
1020.40 1020.26 1020.00 1019.77 1019.49 1019.08 1018.71 1018.39 1018.07 1017.79 1017.62 1017.49 1017.24 1017.15 1016.86 1015.78 1013.06 1013.18 1013.48 1014.10 1014.50 1014.75 1014.79 1014.92 1014.97 1015.02 1015.51 1015.63 1015.90 1015.58 1015.34 1014.89 1014.49 1014.32 1014.21 1014.14 1012.98 1013.21 1010.51 1010.49 1010.84 1011.28 1011.50 1011.91 1012.32
1020.26 1020.05 1019.88 1019.62 1019.31 1018.91 1018.48 1018.08 1017.70 1017.38 1017.14 1017.09 1017.10 1017.15 1016.58 1013.87 1012.95 1013.30 1013.63 1013.82 1013.91 1014.26 1014.69 1014.84 1014.82 1015.02 1015.33 1015.39 1015.24 1015.38 1015.57 1014.80 1013.95 1013.49 1013.90 1013.79 1013.10 1012.42 1009.85 1010.60 1010.57 1010.77 1010.88 1011.13 1011.01
1020.05 1019.94 1019.68 1019.36 1019.08 1018.65 1018.13 1017.61 1017.16 1016.72 1016.46 1016.55 1016.79 1017.04 1015.45 1013.04 1013.04 1013.43 1013.66 1013.84 1013.89 1014.08 1014.22 1014.49 1014.65 1015.14 1015.50 1015.42 1015.50 1015.94 1015.94 1015.41 1013.42 1013.62 1013.39 1013.60 1012.31 1009.92 1009.83 1010.53 1010.41 1010.18 1010.26 1010.32 1009.75
1019.88 1019.64 1019.44 1019.17 1018.79 1018.34 1017.62 1016.98 1016.44 1016.13 1015.98 1016.18 1016.79 1016.75 1015.01 1013.36 1013.32 1013.06 1013.25 1013.67 1014.03 1014.29 1014.38 1014.48 1014.74 1015.44 1015.72 1016.16 1016.80 1016.59 1016.17 1015.58 1014.01 1013.02 1013.45 1013.59 1012.34 1009.86 1009.76 1010.34 1010.33 1009.96 1009.55 1009.21 1008.68
1019.66 1019.53 1019.21 1018.94 1018.61 1018.06 1017.33 1016.42 1016.29 1016.19 1016.33 1016.36 1016.28 1016.72 1014.14 1013.04 1012.90 1013.18 1013.50 1013.83 1014.30 1014.66 1014.88 1015.10 1015.79 1015.96 1016.49 1016.76 1016.66 1016.06 1016.32 1015.42 1014.64 1012.83 1013.25 1013.18 1011.85 1010.47 1009.33 1009.92 1009.93 1009.53 1008.78 1008.21 1007.65
1019.40 1019.32 1019.07 1018.78 1018.49 1017.92 1017.25 1016.66 1016.85 1016.94 1016.67 1015.53 1015.12 1014.21 1013.08 1012.88 1012.76 1013.30 1013.38 1013.92 1014.47 1015.03 1015.51 1015.61 1016.16 1015.76 1014.55 1014.98 1015.00 1015.79 1015.78 1015.33 1013.83 1013.13 1013.42 1012.59 1011.69 1010.92 1009.76 1009.24 1008.83 1008.26 1007.64 1006.72 1006.07
1019.06 1019.09 1018.96 1018.72 1018.42 1017.95 1017.82 1018.26 1018.78 1019.11 1017.43 1015.16 1014.64 1014.34 1013.09 1013.10 1013.21 1013.50 1013.48 1014.15 1014.69 1015.17 1015.70 1016.34 1015.30 1013.85 1014.56 1015.02 1015.39 1015.46 1015.20 1014.83 1013.24 1012.94 1013.30 1012.20 1010.47 1010.03 1009.71 1008.15 1006.75 1006.29 1005.75 1004.90 1004.56
1018.88 1018.72 1018.61 1018.63 1018.30 1018.19 1018.68 1018.80 1018.81 1019.06 1018.55 1015.20 1013.77 1013.37 1012.89 1012.82 1013.07 1013.32 1013.57 1014.05 1014.67 1015.36 1015.22 1014.64 1013.86 1013.94 1014.58 1015.02 1015.47 1014.80 1015.29 1014.06 1013.82 1013.41 1012.83 1011.65 1008.91 1008.63 1007.37 1006.81 1005.53 1004.42 1004.07 1003.94 1003.51
1018.73 1018.64 1018.56 1018.51 1018.78 1018.76 1018.63 1018.60 1018.74 1019.03 1018.29 1014.98 1013.50 1012.63 1012.54 1012.66 1012.96 1013.11 1013.20 1013.71 1014.72 1014.67 1015.13 1014.44 1013.62 1013.74 1014.21 1014.66 1014.62 1013.91 1013.77 1013.91 1013.96 1014.61 1013.70 1012.29 1006.80 1007.59 1006.44 1005.64 1004.83 1003.64 1003.11 1003.22 1002.88
1018.78 1018.40 1018.53 1018.57 1018.95 1018.84 1018.57 1018.58 1018.76 1018.98 1017.21 1013.87 1013.01 1012.50 1012.72 1013.18 1013.30 1013.50 1013.34 1013.14 1013.98 1014.66 1015.01 1013.29 1013.33 1013.50 1013.65 1013.04 1014.04 1013.19 1013.09 1013.69 1014.06 1014.36 1013.75 1012.82 1011.97 1005.57 1005.00 1005.34 1004.22 1002.96 1002.38 1002.11 1001.84
1018.63 1018.33 1018.38 1018.82 1019.00 1018.12 1018.35 1018.59 1018.95 1018.58 1015.67 1013.31 1012.70 1012.79 1013.09 1013.43 1013.60 1013.82 1013.89 1013.34 1013.61 1014.31 1014.36 1013.42 1012.95 1013.20 1012.66 1012.37 1012.52 1013.42 1013.71 1013.95 1014.86 1014.73 1012.95 1011.65 1010.96 1003.66 1004.90 1004.11 1003.78 1003.18 1002.62 1002.31 1001.86
1018.77 1018.48 1018.15 1018.33 1018.43 1018.01 1018.29 1018.95 1018.73 1016.51 1013.84 1012.79 1012.68 1013.03 1013.30 1013.56 1013.76 1013.82 1014.43 1014.11 1013.82 1014.55 1014.07 1013.19 1012.68 1012.15 1012.18 1012.91 1012.62 1012.84 1014.78 1015.23 1015.22 1015.02 1011.39 1009.38 1008.88 1004.06 1003.90 1003.33 1002.78 1002.76 1002.50 1002.67 1002.90
1018.97 1018.61 1018.05 1018.02 1018.18 1018.10 1018.62 1018.93 1016.42 1014.51 1013.48 1012.61 1012.56 1013.05 1012.93 1013.28 1013.59 1013.98 1014.47 1014.62 1013.76 1014.44 1014.10 1013.60 1011.60 1011.85 1011.93 1011.80 1012.06 1012.32 1013.41 1014.99 1014.25 1013.39 1010.87 1009.77 1005.67 1002.41 1002.33 1002.00 1001.86 1002.32 1002.87 1003.24 1003.26
1018.79 1017.93 1017.93 1017.89 1018.14 1018.37 1018.58 1017.71 1014.83 1013.82 1013.40 1012.84 1012.71 1012.92 1013.00 1012.76 1013.33 1013.92 1014.36 1014.06 1013.46 1013.55 1013.88 1013.26 1011.54 1011.23 1011.17 1011.28 1011.32 1012.50 1012.64 1012.13 1012.98 1012.48 1012.02 1007.79 1004.54 1002.24 1001.86 1001.90 1002.08 1002.32 1002.58 1003.01 1003.22
1018.75 1018.02 1016.96 1016.80 1017.77 1018.39 1017.90 1015.47 1014.41 1013.19 1012.68 1013.15 1012.67 1012.41 1012.65 1012.76 1013.18 1013.50 1013.86 1013.03 1013.09 1012.93 1012.72 1013.19 1012.06 1011.14 1011.29 1011.25 1011.47 1011.57 1011.87 1012.66 1012.95 1012.47 1010.85 1007.51 1005.53 1002.18 1002.24 1002.11 1002.18 1002.43 1002.77 1003.13 1002.92
1018.63 1017.87 1016.26 1016.36 1017.31 1017.68 1016.01 1014.65 1013.88 1013.10 1013.23 1013.30 1012.53 1012.37 1012.25 1012.53 1012.72 1012.96 1012.94 1012.95 1012.84 1012.73 1013.16 1013.22 1014.32 1011.55 1011.75 1011.01 1011.19 1012.07 1011.52 1011.60 1011.84 1011.26 1009.73 1007.78 1004.57 1000.79 1001.65 1001.89 1001.89 1002.51 1002.74 1003.20 1002.91
1018.98 1017.98 1016.46 1016.45 1017.48 1016.07 1014.77 1014.31 1013.91 1013.18 1013.18 1012.74 1012.82 1012.54 1012.74 1012.58 1012.30 1012.48 1012.37 1012.81 1012.43 1012.32 1013.19 1012.92 1013.53 1013.08 1011.34 1010.82 1010.17 1010.85 1010.93 1010.86 1010.77 1009.25 1008.13 1006.36 1003.48 1001.46 1001.30 1001.96 1001.77 1001.54 1002.49 1002.84 1003.08
1019.06 1017.91 1016.66 1016.56 1016.31 1015.47 1014.42 1013.94 1013.73 1012.94 1013.01 1012.67 1013.00 1012.38 1012.60 1012.68 1012.92 1012.32 1012.36 1012.25 1012.29 1012.63 1012.54 1012.91 1012.98 1012.56 1011.42 1010.46 1010.84 1010.64 1010.18 1009.84 1009.26 1008.97 1007.74 1006.01 1003.72 1003.86 1002.79 1001.15 1001.39 1002.40 1002.60 1002.77 1002.61
1020.13 1018.71 1017.60 1016.72 1015.94 1015.61 1015.17 1014.08 1013.69 1013.21 1012.55 1012.78 1012.82 1012.94 1013.04 1013.02 1013.06 1012.63 1012.52 1012.96 1013.05 1013.38 1013.14 1013.11 1012.78 1012.39 1012.00 1011.02 1010.77 1010.88 1009.97 1009.63 1009.20 1008.19 1006.31 1005.81 1004.73 1004.90 1004.90 1004.35 1002.63 1001.97 1003.65 1003.54 1004.08
1020.22 1019.55 1018.77 1017.45 1016.75 1016.08 1015.96 1015.23 1014.35 1013.52 1013.28 1013.38 1013.01 1013.37 1013.96 1013.82 1013.85 1014.07 1013.91 1013.92 1014.25 1014.51 1013.89 1014.15 1012.91 1012.37 1012.27 1012.24 1012.02 1011.26 1010.93 1009.96 1008.77 1007.83 1007.12 1006.31 1006.35 1006.67 1006.45 1006.40 1006.69 1006.70 1006.76 1006.54 1006.55
1020.46 1020.16 1019.57 1018.99 1018.04 1017.06 1016.55 1015.31 1015.32 1014.55 1014.86 1014.08 1014.70 1014.81 1015.17 1015.16 1015.71 1015.81 1016.38 1016.17 1016.05 1015.78 1015.11 1015.12 1014.43 1013.93 1012.85 1012.12 1012.31 1011.25 1010.85 1010.08 1009.70 1008.87 1008.00 1008.03 1007.61 1009.55 1010.21 1010.01 1009.53 1009.61 1009.27 1008.93 1008.73
1020.53 1020.39 1020.36 1019.14 1018.56 1018.49 1017.31 1016.43 1016.26 1016.25 1015.92 1015.80 1016.32 1016.71 1016.56 1017.01 1017.76 1017.74 1017.47 1017.50 1017.54 1017.20 1016.45 1016.26 1015.54 1015.18 1013.42 1012.98 1012.88 1011.28 1010.11 1009.80 1009.43 1008.87 1009.52 1010.37 1012.25 1011.73 1012.10 1011.59 1011.44 1010.90 1011.05 1010.42 1009.84
Wind_Speed
13 14 14 14 14 14 14 14 14 13 13 12 12 12 13 12 7 1 6 10 6 13 6 6 3 2 3 1 2 4 3 3 6 5 5 1 3 2 1 2 3 7 4 1 6
12 14 15 15 15 15 14 14 14 14 14 13 13 12 12 11 2 8 10 5 7 14 6 7 5 4 1 2 1 5 4 8 6 4 4 3 4 4 2 4 5 6 2 4 7
11 12 14 16 16 16 15 15 14 14 14 14 13 13 12 6 4 8 2 9 13 10 5 5 5 5 2 2 4 5 7 6 7 7 4 4 3 5 4 9 9 11 10 7 9
9 11 13 15 16 15 16 16 16 15 15 14 14 13 12 1 6 2 5 9 10 6 7 5 4 4 4 6 5 3 9 6 6 4 3 4 3 5 9 22 6 14 2 8 11
8 9 12 14 15 16 16 17 17 16 15 15 14 13 2 2 11 2 6 7 5 5 7 6 5 5 5 4 2 5 5 6 7 6 7 5 12 7 12 19 9 9 7 10 12
8 9 10 12 15 16 17 18 19 17 16 14 12 9 1 5 2 7 9 6 2 2 3 6 6 7 4 4 5 2 5 8 5 6 6 5 11 5 18 6 10 8 12 11 12
9 9 11 12 14 16 18 19 19 18 17 14 9 2 2 16 1 7 8 5 6 5 3 3 2 3 1 4 3 4 8 9 7 7 10 7 13 12 25 5 11 10 10 10 16
9 10 11 12 14 16 19 19 20 19 17 11 5 2 9 1 5 6 4 3 4 3 4 1 4 2 2 4 7 4 1 6 1 7 3 9 17 19 13 7 13 13 10 11 13
9 10 11 12 14 17 20 22 19 10 1 7 5 3 10 2 2 5 5 5 6 3 3 3 4 4 1 2 5 3 6 9 15 13 6 9 11 15 5 7 12 11 11 12 12
9 10 11 12 14 17 22 19 5 2 4 2 1 2 5 7 3 4 1 7 4 5 4 4 5 3 2 5 10 9 6 6 8 4 5 6 16 15 15 8 13 14 15 16 18
9 10 11 12 13 16 12 5 5 2 2 9 7 5 3 1 2 2 4 5 4 4 7 3 5 12 23 17 6 4 6 8 11 10 3 11 15 17 20 15 14 16 20 21 22
8 9 11 11 12 17 2 5 1 3 9 7 11 9 6 3 3 4 6 7 6 8 6 1 12 21 1 3 8 11 16 15 18 17 5 17 24 20 13 21 25 23 22 24 20
9 8 9 9 12 4 2 1 2 4 3 11 7 5 6 9 8 6 10 4 5 7 10 17 9 11 8 6 7 9 8 17 16 7 6 10 20 16 14 19 24 24 22 21 21
9 9 7 9 2 1 2 2 3 2 3 9 4 3 1 4 4 1 2 5 2 11 6 10 8 10 5 7 13 19 13 14 13 3 12 3 19 7 11 16 11 19 17 15 18
8 5 5 1 2 2 1 4 4 3 9 4 3 2 1 5 3 2 1 4 5 5 4 11 4 4 7 16 10 12 5 7 4 5 5 5 7 1 5 7 15 17 17 16 16
8 5 4 2 1 3 5 5 1 4 11 5 1 1 3 3 1 2 1 3 3 3 5 12 2 6 9 6 11 1 2 2 4 3 12 14 11 4 6 9 5 7 11 12 16
8 8 8 2 1 4 5 2 2 8 1 4 2 3 1 3 3 3 3 5 6 2 4 2 5 4 5 4 2 6 3 5 5 1 13 6 8 13 7 8 9 11 12 10 9
10 9 5 3 4 5 3 2 10 6 7 2 2 1 6 8 4 2 2 4 4 1 0 3 14 8 5 9 8 9 13 8 9 8 18 5 16 14 9 10 7 4 5 8 10
14 2 2 3 5 1 4 7 6 4 4 4 5 4 4 3 5 3 6 5 7 13 9 4 10 2 4 2 8 4 7 5 1 2 1 11 20 19 6 7 1 6 4 6 7
3 3 4 7 9 2 4 18 10 7 4 3 6 7 5 4 5 5 2 3 4 9 1 2 14 4 0 2 3 7 3 2 2 3 10 16 10 21 15 19 19 6 6 7 6
1 3 3 8 6 4 11 10 9 13 8 7 7 12 14 10 9 6 2 2 3 2 4 5 3 11 5 7 11 1 4 5 1 5 15 19 17 25 18 10 6 7 8 8 9
3 3 2 7 6 4 15 10 7 17 8 9 6 17 22 18 15 14 13 10 6 2 6 9 2 12 12 5 6 4 7 7 10 10 11 19 20 28 28 20 16 23 14 6 6
2 4 0 2 8 12 7 7 14 20 15 4 10 7 8 14 11 14 17 16 16 8 7 7 6 11 13 4 1 7 12 16 17 15 22 23 18 15 24 31 26 21 7 9 8
2 3 3 4 7 7 13 19 17 7 12 11 13 12 16 18 16 12 15 5 6 5 11 2 17 20 18 22 15 10 8 11 18 14 20 21 27 23 25 28 32 37 18 18 13
1 4 2 3 9 14 14 11 17 13 7 6 4 10 12 12 15 16 12 7 4 6 3 2 8 8 11 11 14 21 22 26 29 26 25 22 27 24 26 22 20 19 19 19 19
2 1 3 5 6 6 5 15 20 23 16 16 15 8 2 4 3 2 4 1 3 4 5 2 8 13 21 24 20 22 17 17 18 18 21 25 30 19 17 19 21 17 20 18 17
1 2 1 4 2 1 5 8 1 6 3 6 8 3 4 1 4 6 8 11 13 12 10 6 6 6 21 23 21 17 23 23 23 17 13 13 10 12 18 21 22 13 18 19 20
Wind_Direction
19 15 11 8 3 0 0 359 356 356 352 350 350 348 343 336 316 169 240 220 179 159 107 112 96 116 73 66 114 124 63 249 251 187 251 180 228 200 148 241 233 212 201 299 116
12 6 2 358 355 352 351 352 350 348 346 345 344 343 339 337 275 239 243 221 157 148 113 147 163 128 77 217 171 117 147 229 218 226 246 263 193 259 310 244 253 285 231 90 136
2 358 356 354 348 345 343 342 342 340 338 337 337 335 330 331 329 248 179 170 158 160 132 144 101 124 203 155 207 179 213 218 254 233 252 254 247 217 207 263 207 214 234 172 179
347 347 347 348 349 341 337 335 334 332 332 331 332 330 320 123 291 339 146 156 149 137 118 131 121 154 202 212 199 213 244 218 259 221 258 242 276 243 199 249 197 227 197 170 192
325 325 331 335 339 340 335 331 327 325 324 326 329 331 319 20 251 127 123 122 105 127 171 161 158 164 201 209 205 231 255 248 254 271 261 305 252 242 257 255 246 243 210 210 209
305 311 313 318 326 329 327 324 320 317 316 316 320 321 181 250 230 156 134 112 113 153 183 144 201 203 226 227 185 268 267 272 279 233 248 231 274 139 263 249 245 241 238 227 218
297 302 305 309 314 316 315 313 310 305 301 300 302 273 210 234 102 147 142 167 161 161 181 209 180 161 156 296 281 297 313 306 214 224 229 168 290 225 252 201 265 252 252 241 232
290 298 301 304 308 309 309 309 305 298 290 280 237 187 244 309 125 139 162 127 119 140 134 129 138 159 191 304 353 338 310 322 293 132 236 154 263 259 251 221 261 271 264 251 251
290 292 298 304 309 311 311 312 310 306 194 141 117 160 262 124 194 198 148 156 115 90 68 107 120 175 267 111 9 300 239 224 299 190 151 184 252 269 249 195 267 267 269 265 264
288 293 297 304 310 314 316 314 292 45 79 173 257 45 273 240 185 130 106 132 122 115 73 95 58 164 45 113 232 216 221 246 236 287 172 218 246 272 283 198 245 264 267 264 267
284 293 299 307 314 319 337 1 13 348 357 197 201 230 299 64 90 114 152 102 99 92 175 204 137 207 220 203 233 192 226 234 255 263 224 234 250 254 268 277 255 261 264 263 262
273 285 297 310 322 324 19 63 112 188 303 254 252 268 242 205 211 200 133 145 157 198 124 77 216 225 236 160 218 234 254 260 270 265 205 268 264 265 254 259 261 259 258 260 260
273 276 290 313 328 22 27 65 115 130 256 288 220 206 244 158 219 218 154 135 168 170 202 222 218 220 205 216 242 222 225 253 264 307 237 280 273 248 250 248 263 264 254 268 260
274 277 283 309 347 324 262 155 112 115 330 273 267 281 215 194 238 40 194 143 219 222 210 245 238 207 166 212 211 264 219 254 263 347 276 3 297 258 237 248 229 261 268 250 267
289 287 269 184 310 316 95 118 117 73 295 251 205 328 44 174 123 350 197 103 208 207 163 244 197 164 192 226 166 252 179 220 199 198 314 178 260 189 166 246 251 252 259 262 250
312 287 167 130 224 219 117 115 58 62 252 301 138 76 93 344 347 29 51 46 117 219 233 254 343 177 218 207 180 51 45 71 56 120 262 196 205 21 166 217 273 277 264 259 271
331 300 163 176 252 86 101 301 211 220 8 243 216 165 168 225 274 182 172 181 177 250 250 322 220 236 177 248 139 128 69 309 319 6 253 177 214 245 263 225 211 246 269 317 318
321 310 227 194 138 97 71 255 238 186 223 318 104 115 194 162 238 156 113 271 248 151 229 257 292 188 171 198 196 185 165 176 227 259 281 124 259 274 228 235 255 351 275 311 318
314 204 211 224 152 193 113 244 221 180 220 253 314 272 246 248 189 137 211 231 218 180 199 205 263 228 200 172 160 179 178 197 297 16 344 260 276 287 260 296 349 303 347 310 320
313 269 204 171 152 173 202 238 242 209 155 249 229 190 197 192 183 173 245 175 250 198 331 313 296 210 327 201 193 174 183 59 354 206 256 275 272 262 284 287 284 254 277 293 312
265 270 266 133 138 210 230 236 255 232 246 246 259 263 260 260 239 234 237 282 250 183 192 95 264 260 352 203 228 162 229 199 200 196 247 260 265 268 272 265 242 269 275 299 305
280 233 155 152 205 219 232 224 232 255 258 259 263 259 265 274 257 263 250 215 223 201 207 201 271 256 254 250 176 168 229 208 230 251 236 253 251 281 280 285 265 276 291 274 275
267 280 169 233 230 228 242 244 242 250 246 237 242 220 260 269 278 247 261 259 252 230 223 189 220 279 290 280 308 197 227 232 243 263 259 264 265 270 293 294 286 291 260 273 264
314 295 228 239 250 248 249 250 250 222 245 235 251 260 270 266 255 266 275 282 6 303 319 176 255 251 257 267 298 286 259 248 240 248 255 256 270 269 273 282 295 302 336 347 6
202 248 329 258 247 253 252 270 278 273 225 232 242 243 252 263 274 273 292 323 346 360 32 1 274 273 289 300 311 313 303 287 270 266 261 272 279 284 282 311 354 7 7 17 12
223 282 343 303 310 283 240 247 262 271 272 265 263 305 303 264 245 133 26 96 231 325 16 15 280 310 287 286 282 274 271 272 281 282 276 276 275 12 16 11 10 12 10 7 0
262 290 341 252 279 289 256 260 54 1 32 56 81 355 294 68 304 279 244 242 247 265 269 257 258 272 274 281 299 277 261 270 273 279 323 306 11 2 5 358 342 19 0 349 343